�������l�o���
Date,Time,MP-1(��Sv/h),MP-2(��Sv/h),MP-3(��Sv/h),MP-4(��Sv/h),MP-5(��Sv/h),MP-6(��Sv/h),MP-7(��Sv/h),MP-8(��Sv/h),����,����(m/s),���J
2019/01/21,00:00,0.796,1.182,0.829,1.522,1.087,0.455,0.804,0.760,�k�k��,7.5,��
2019/01/21,00:10,0.796,1.183,0.831,1.521,1.088,0.453,0.807,0.759,�k�k��,5.2,��
2019/01/21,00:20,0.798,1.181,0.831,1.521,1.089,0.454,0.804,0.760,�k��,6.5,��
2019/01/21,00:30,0.794,1.183,0.829,1.521,1.088,0.454,0.805,0.761,�k�k��,5.4,��
2019/01/21,00:40,0.797,1.183,0.832,1.520,1.090,0.454,0.805,0.760,�k�k��,4.3,��
2019/01/21,00:50,0.796,1.181,0.831,1.523,1.085,0.454,0.805,0.759,�k�k��,5.3,��
2019/01/21,01:00,0.795,1.180,0.830,1.518,1.087,0.454,0.805,0.758,�k�k��,4.2,��
2019/01/21,01:10,0.794,1.182,0.831,1.521,1.086,0.453,0.804,0.759,���k��,5.8,��
2019/01/21,01:20,0.795,1.180,0.830,1.520,1.089,0.455,0.802,0.761,�k��,4.8,��
2019/01/21,01:30,0.796,1.181,0.832,1.522,1.088,0.453,0.803,0.758,�k��,5.0,��
2019/01/21,01:40,0.794,1.182,0.828,1.521,1.085,0.454,0.803,0.759,�k��,7.0,��
2019/01/21,01:50,0.794,1.183,0.829,1.521,1.087,0.454,0.806,0.760,���k��,5.0,��
2019/01/21,02:00,0.794,1.181,0.832,1.518,1.088,0.454,0.805,0.759,�k��,8.8,��
2019/01/21,02:10,0.794,1.181,0.831,1.524,1.086,0.454,0.805,0.760,�k��,8.3,��
2019/01/21,02:20,0.794,1.180,0.830,1.519,1.090,0.453,0.804,0.758,�k��,8.7,��
2019/01/21,02:30,0.795,1.180,0.830,1.522,1.088,0.454,0.805,0.758,�k��,7.0,��
2019/01/21,02:40,0.793,1.182,0.829,1.522,1.088,0.454,0.803,0.759,�k��,7.1,��
2019/01/21,02:50,0.795,1.180,0.827,1.520,1.088,0.453,0.804,0.760,�k��,6.3,��
2019/01/21,03:00,0.794,1.182,0.827,1.519,1.087,0.453,0.804,0.758,�k��,4.7,��
2019/01/21,03:10,0.794,1.179,0.828,1.521,1.087,0.453,0.805,0.760,�k��,6.0,��
2019/01/21,03:20,0.793,1.181,0.829,1.519,1.086,0.451,0.805,0.759,�k�k��,5.3,��
2019/01/21,03:30,0.794,1.180,0.828,1.521,1.086,0.452,0.803,0.758,�k�k��,5.0,��
2019/01/21,03:40,0.793,1.179,0.826,1.521,1.087,0.452,0.805,0.759,�k��,4.6,��
2019/01/21,03:50,0.795,1.180,0.829,1.520,1.086,0.450,0.805,0.758,�k��,3.9,��
2019/01/21,04:00,0.795,1.180,0.829,1.519,1.089,0.452,0.803,0.759,�k��,5.0,��
2019/01/21,04:10,0.793,1.178,0.830,1.518,1.087,0.453,0.805,0.760,���k��,4.2,��
2019/01/21,04:20,0.795,1.179,0.830,1.518,1.085,0.453,0.802,0.759,�k��,7.5,��
2019/01/21,04:30,0.794,1.179,0.828,1.518,1.086,0.453,0.804,0.759,�k��,6.8,��
2019/01/21,04:40,0.793,1.181,0.827,1.519,1.088,0.453,0.802,0.759,�k��,9.6,��
2019/01/21,04:50,0.794,1.177,0.829,1.517,1.086,0.453,0.803,0.759,�k��,6.5,��
2019/01/21,05:00,0.793,1.179,0.829,1.520,1.085,0.453,0.803,0.758,�k��,10.0,��
2019/01/21,05:10,0.793,1.176,0.827,1.518,1.084,0.452,0.804,0.757,�k��,8.2,��
2019/01/21,05:20,0.792,1.177,0.828,1.521,1.085,0.451,0.803,0.759,�k��,9.0,��
2019/01/21,05:30,0.792,1.177,0.829,1.517,1.085,0.452,0.804,0.760,�k��,8.4,��
2019/01/21,05:40,0.793,1.178,0.827,1.518,1.082,0.450,0.804,0.759,�k��,6.5,��
2019/01/21,05:50,0.794,1.178,0.828,1.517,1.084,0.450,0.804,0.758,�k��,7.5,��
2019/01/21,06:00,0.792,1.179,0.829,1.521,1.082,0.450,0.803,0.759,�k��,7.0,��
2019/01/21,06:10,0.794,1.178,0.830,1.520,1.083,0.451,0.802,0.758,�k�k��,6.2,��
2019/01/21,06:20,0.793,1.179,0.828,1.515,1.083,0.452,0.801,0.759,�k�k��,6.5,��
2019/01/21,06:30,0.791,1.182,0.829,1.516,1.084,0.451,0.802,0.759,�k�k��,5.0,��
2019/01/21,06:40,0.793,1.181,0.829,1.519,1.086,0.451,0.802,0.759,�k��,7.3,��
2019/01/21,06:50,0.792,1.181,0.828,1.518,1.087,0.452,0.801,0.758,�k��,8.3,��
2019/01/21,07:00,0.792,1.178,0.828,1.521,1.083,0.452,0.801,0.758,�k��,7.7,��
2019/01/21,07:10,0.792,1.180,0.830,1.519,1.084,0.452,0.802,0.758,�k��,6.9,��
2019/01/21,07:20,0.792,1.179,0.828,1.520,1.086,0.451,0.803,0.759,�k�k��,6.5,��
2019/01/21,07:30,0.789,1.178,0.825,1.519,1.089,0.453,0.803,0.759,�k��,4.7,��
2019/01/21,07:40,0.794,1.180,0.828,1.520,1.087,0.453,0.803,0.759,�k�k��,5.7,��
2019/01/21,07:50,0.795,1.180,0.828,1.518,1.088,0.451,0.801,0.758,�k�k��,5.2,��
2019/01/21,08:00,0.793,1.177,0.830,1.519,1.085,0.454,0.800,0.757,�k��,5.1,��
2019/01/21,08:10,0.793,1.178,0.828,1.519,1.086,0.451,0.802,0.759,�k��,4.0,��
2019/01/21,08:20,0.793,1.176,0.829,1.520,1.088,0.452,0.804,0.757,�k��,8.0,��
2019/01/21,08:30,0.794,1.176,0.829,1.522,1.086,0.452,0.803,0.757,���k��,7.5,��
2019/01/21,08:40,0.794,1.174,0.827,1.521,1.083,0.454,0.803,0.759,���k��,7.9,��
2019/01/21,08:50,0.796,1.171,0.829,1.520,1.085,0.453,0.804,0.760,�k��,8.7,��
2019/01/21,09:00,0.795,1.168,0.827,1.519,1.087,0.452,0.805,0.759,�k��,11.3,��
2019/01/21,09:10,0.795,1.177,0.830,1.519,1.086,0.453,0.804,0.761,���k��,11.6,��
2019/01/21,09:20,0.796,1.178,0.828,1.520,1.088,0.453,0.804,0.759,���k��,11.6,��
2019/01/21,09:30,0.796,1.178,0.830,1.519,1.088,0.454,0.800,0.761,���k��,13.0,��
2019/01/21,09:40,0.795,1.178,0.831,1.521,1.088,0.453,0.801,0.759,���k��,10.5,��
2019/01/21,09:50,0.798,1.174,0.830,1.519,1.088,0.454,0.803,0.760,���k��,11.6,��
2019/01/21,10:00,0.797,1.176,0.829,1.518,1.085,0.454,0.801,0.760,���k��,12.7,��
2019/01/21,10:10,0.797,1.176,0.828,1.518,1.088,0.453,0.803,0.759,���k��,12.7,��
2019/01/21,10:20,0.797,1.178,0.828,1.518,1.088,0.454,0.802,0.757,���k��,11.1,��
2019/01/21,10:30,0.793,1.177,0.830,1.520,1.083,0.453,0.804,0.760,���k��,9.8,��
2019/01/21,10:40,0.798,1.174,0.826,1.520,1.087,0.455,0.803,0.759,���k��,6.8,��
2019/01/21,10:50,0.795,1.172,0.831,1.520,1.090,0.455,0.803,0.759,���k��,8.9,��
2019/01/21,11:00,0.796,1.178,0.829,1.521,1.087,0.454,0.804,0.759,���k��,4.3,��
2019/01/21,11:10,0.797,1.178,0.830,1.520,1.086,0.453,0.803,0.760,���k��,5.6,��
2019/01/21,11:20,0.797,1.178,0.830,1.523,1.087,0.453,0.804,0.760,���k��,13.5,��
2019/01/21,11:30,0.795,1.179,0.832,1.521,1.087,0.453,0.803,0.761,�k��,7.3,��
2019/01/21,11:40,0.798,1.179,0.832,1.522,1.088,0.455,0.804,0.759,���k��,9.1,��
2019/01/21,11:50,0.798,1.179,0.831,1.523,1.088,0.453,0.804,0.761,���k��,11.3,��
2019/01/21,12:00,0.798,1.180,0.831,1.522,1.089,0.454,0.804,0.760,���k��,11.6,��
2019/01/21,12:10,0.798,1.182,0.831,1.521,1.090,0.455,0.804,0.759,���k��,9.4,��
2019/01/21,12:20,0.798,1.185,0.829,1.523,1.089,0.456,0.805,0.760,���k��,12.1,��
2019/01/21,12:30,0.797,1.181,0.832,1.521,1.091,0.454,0.804,0.760,���k��,10.0,��
2019/01/21,12:40,0.797,1.180,0.831,1.525,1.090,0.454,0.804,0.760,���k��,13.5,��
2019/01/21,12:50,0.798,1.183,0.831,1.524,1.090,0.453,0.806,0.760,���k��,12.4,��
2019/01/21,13:00,0.798,1.179,0.833,1.522,1.088,0.455,0.806,0.761,���k��,9.0,��
2019/01/21,13:10,0.799,1.182,0.828,1.523,1.089,0.454,0.806,0.761,���k��,9.4,��
2019/01/21,13:20,0.800,1.179,0.831,1.521,1.088,0.454,0.806,0.762,���k��,9.3,��
2019/01/21,13:30,0.799,1.177,0.827,1.524,1.086,0.453,0.805,0.759,���k��,10.3,��
2019/01/21,13:40,0.798,1.175,0.830,1.522,1.086,0.452,0.807,0.758,��,9.7,��
2019/01/21,13:50,0.799,1.180,0.829,1.522,1.088,0.454,0.805,0.759,���k��,13.8,��
2019/01/21,14:00,0.800,1.178,0.829,1.525,1.090,0.455,0.807,0.758,���k��,14.7,��
2019/01/21,14:10,0.798,1.179,0.829,1.521,1.091,0.455,0.805,0.760,���k��,12.1,��
2019/01/21,14:20,0.798,1.175,0.831,1.525,1.088,0.454,0.805,0.758,���k��,6.9,��
2019/01/21,14:30,0.797,1.175,0.829,1.526,1.093,0.455,0.805,0.758,���k��,5.5,��
2019/01/21,14:40,0.800,1.176,0.829,1.526,1.091,0.455,0.805,0.759,�k��,5.3,��
2019/01/21,14:50,0.797,1.179,0.828,1.524,1.092,0.455,0.805,0.760,�k�k��,3.5,��
2019/01/21,15:00,0.799,1.180,0.831,1.526,1.088,0.453,0.805,0.760,�k��,3.4,��
2019/01/21,15:10,0.798,1.181,0.831,1.524,1.091,0.455,0.806,0.759,�쐼,0.9,��
2019/01/21,15:20,0.799,1.180,0.829,1.524,1.089,0.454,0.805,0.760,�k��,4.1,��
2019/01/21,15:30,0.798,1.182,0.831,1.524,1.090,0.453,0.806,0.760,���k��,2.9,��
2019/01/21,15:40,0.799,1.183,0.829,1.527,1.091,0.455,0.805,0.759,��,7.4,��
2019/01/21,15:50,0.798,1.183,0.830,1.524,1.091,0.454,0.803,0.761,�k��,2.5,��
2019/01/21,16:00,0.797,1.184,0.832,1.526,1.089,0.455,0.804,0.761,��,1.9,��
2019/01/21,16:10,0.797,1.182,0.830,1.523,1.091,0.454,0.804,0.759,���k��,3.4,��
2019/01/21,16:20,0.799,1.184,0.831,1.523,1.091,0.456,0.804,0.760,��,6.3,��
2019/01/21,16:30,0.795,1.183,0.828,1.523,1.090,0.453,0.804,0.757,���k��,4.8,��
2019/01/21,16:40,0.797,1.180,0.831,1.522,1.091,0.453,0.803,0.758,���k��,3.2,��
2019/01/21,16:50,0.796,1.185,0.830,1.523,1.089,0.453,0.804,0.760,�k�k��,2.0,��
2019/01/21,17:00,0.797,1.183,0.830,1.521,1.089,0.454,0.805,0.759,��,1.7,��
2019/01/21,17:10,0.795,1.140,0.830,1.525,1.091,0.454,0.804,0.760,��,4.2,��
2019/01/21,17:20,0.796,1.117,0.829,1.521,1.090,0.453,0.803,0.758,��,3.2,��
2019/01/21,17:30,0.796,1.115,0.829,1.525,1.090,0.454,0.802,0.758,���k��,2.9,��
2019/01/21,17:40,0.795,1.113,0.829,1.522,1.088,0.454,0.803,0.758,���쐼,3.5,��
2019/01/21,17:50,0.796,1.115,0.830,1.525,1.090,0.453,0.801,0.759,��,4.1,��
2019/01/21,18:00,0.798,1.113,0.829,1.521,1.091,0.454,0.804,0.759,���쐼,4.7,��
2019/01/21,18:10,0.795,1.114,0.829,1.521,1.089,0.453,0.803,0.758,���쐼,5.4,��
2019/01/21,18:20,0.794,1.118,0.828,1.521,1.089,0.452,0.803,0.758,���쐼,4.6,��
2019/01/21,18:30,0.796,1.117,0.830,1.522,1.092,0.454,0.803,0.757,��,4.7,��
2019/01/21,18:40,0.795,1.117,0.828,1.521,1.089,0.453,0.801,0.759,��,5.5,��
2019/01/21,18:50,0.795,1.116,0.827,1.523,1.089,0.455,0.802,0.761,��,4.3,��
2019/01/21,19:00,0.795,1.120,0.826,1.522,1.090,0.454,0.802,0.759,��,3.3,��
2019/01/21,19:10,0.794,1.118,0.826,1.522,1.090,0.452,0.801,0.759,���쐼,3.9,��
2019/01/21,19:20,0.796,1.120,0.826,1.522,1.088,0.453,0.802,0.760,���쐼,3.7,��
2019/01/21,19:30,0.796,1.119,0.825,1.520,1.089,0.453,0.801,0.757,��,3.5,��
2019/01/21,19:40,0.795,1.123,0.826,1.521,1.088,0.454,0.803,0.759,���k��,2.5,��
2019/01/21,19:50,0.797,1.123,0.827,1.520,1.089,0.453,0.802,0.759,���k��,2.3,��
2019/01/21,20:00,0.796,1.122,0.826,1.521,1.088,0.454,0.801,0.759,�k��,1.5,��
2019/01/21,20:10,0.795,1.121,0.826,1.523,1.086,0.452,0.800,0.759,�k�k��,1.5,��
2019/01/21,20:20,0.795,1.129,0.823,1.521,1.088,0.452,0.801,0.758,�k��,1.7,��
2019/01/21,20:30,0.796,1.142,0.826,1.521,1.087,0.454,0.802,0.757,�쐼,0.9,��
2019/01/21,20:40,0.796,1.142,0.826,1.519,1.087,0.451,0.801,0.758,�쐼,0.6,��
2019/01/21,20:50,0.795,1.122,0.825,1.523,1.087,0.452,0.801,0.759,��쐼,0.9,��
2019/01/21,21:00,0.794,1.130,0.824,1.519,1.089,0.453,0.803,0.758,��,1.2,��
2019/01/21,21:10,0.794,1.131,0.825,1.521,1.090,0.453,0.801,0.757,-,CALM,��
2019/01/21,21:20,0.795,1.131,0.825,1.521,1.088,0.452,0.801,0.759,���쐼,1.1,��
2019/01/21,21:30,0.794,1.131,0.825,1.522,1.088,0.453,0.799,0.756,�k��,0.6,��
2019/01/21,21:40,0.794,1.133,0.825,1.521,1.088,0.454,0.801,0.757,�k��,1.2,��
2019/01/21,21:50,0.793,1.129,0.825,1.520,1.087,0.454,0.802,0.758,�k��,2.0,��
2019/01/21,22:00,0.796,1.120,0.825,1.519,1.089,0.452,0.801,0.757,���k��,1.5,��
2019/01/21,22:10,0.791,1.104,0.825,1.521,1.089,0.451,0.801,0.758,�k�k��,0.9,��
2019/01/21,22:20,0.792,1.102,0.824,1.517,1.088,0.452,0.800,0.756,�k�k��,0.9,��
2019/01/21,22:30,0.794,1.106,0.825,1.519,1.089,0.453,0.801,0.759,�k,0.9,��
2019/01/21,22:40,0.794,1.102,0.823,1.521,1.088,0.453,0.802,0.760,�k��,1.5,��
2019/01/21,22:50,0.795,1.107,0.825,1.519,1.088,0.452,0.801,0.758,�k��,2.9,��
2019/01/21,23:00,0.793,1.161,0.824,1.518,1.088,0.453,0.804,0.759,�k��,3.5,��
2019/01/21,23:10,0.795,1.170,0.826,1.521,1.090,0.452,0.803,0.759,�k��,3.7,��
2019/01/21,23:20,0.793,1.130,0.825,1.521,1.090,0.452,0.802,0.759,��,4.3,��
2019/01/21,23:30,0.795,1.160,0.829,1.521,1.089,0.452,0.803,0.758,���k��,5.3,��
2019/01/21,23:40,0.795,1.169,0.826,1.523,1.088,0.453,0.801,0.759,���k��,5.9,��
2019/01/21,23:50,0.796,1.171,0.826,1.519,1.088,0.452,0.802,0.758,���k��,6.7,��
